Powrót do katalogu

ARIANE 42L+3 R/B

AktywnyGTO
NORAD 23637·ROCKET BODY·🇫🇷 France

Wystrzelony Aug 3, 1995 z Guiana Space Centre

Loading…

TLE

Starzejące sięSource: Space-Track

Epoka: Sep 14, 2026, 04:07 UTC

1 23637U 95040B   26257.17161266 -.00000113  00000-0  10961-2 0  9996
2 23637   4.5987 306.9618 7202701  73.4243 349.5015  2.18791414248537

Śledź ARIANE 42L+3 R/B w czasie rzeczywistym z AllMySat

Download on the App Store